Weather History for Jonesboro, AR

Change the Weather History Date:

Sunday, October 6, 2013

  Actual Average Record
Temperature  
Mean Temperature 64 °F 64 °F  
Max Temperature 73 °F 76 °F 94 °F (1956)
Min Temperature 54 °F 53 °F 35 °F (1932)
Degree Days  
Heating Degree Days 1 3  
Month to date heating degree days 1 17  
Since 1 July heating degree days 1 35  
Cooling Degree Days 0 3  
Month to date cooling degree days 55 19  
Year to date cooling degree days 2023 1790  
Growing Degree Days 14 (Base 50)    
Moisture  
Dew Point 48 °F    
Average Humidity 62    
Maximum Humidity 86    
Minimum Humidity 37    
Precipitation  
Precipitation 0.00 in 0.13 in 2.89 in (1949)
Month to date precipitation T 0.86  
Year to date precipitation 38.73 35.03  
Snow  
Snow 0.00 in - 0.00 in (2002)
Month to date snowfall 0.0  
Since 1 July snowfall 0.0  
Since 1 September snowfall 0.0  
Snow Depth 0.00 in    
Sea Level Pressure  
Sea Level Pressure 29.94 in    
Wind  
Wind Speed 7 mph (WNW)    
Max Wind Speed 16 mph    
Max Gust Speed 22 mph    
Visibility 10 miles    
Events Rain    
T = Trace of Precipitation, MM = Missing Value Source: NWS Daily Summary

Daily Weather History Graph

Daily Weather History Graph

Search for Another Location

Airport:

Trip Planner

Search our weather history database for the weather conditions in past years. The results will help you decide how hot, cold, wet, or windy it might be!

Date:

Astronomy

Oct. 06, 2013 Rise Set
Actual Time 7:01 AM CDT 6:38 PM CDT
Civil Twilight 6:36 AM CDT 7:04 PM CDT
Nautical Twilight 6:06 AM CDT 7:33 PM CDT
Astronomical Twilight 5:36 AM CDT 8:03 PM CDT
Moon 8:42 AM CDT (10/6) 7:43 PM CDT (10/6)
Length of Visible Light 12h 28m
Length of Day
11h 36m
Waxing Crescent, 3% of the Moon is Illuminated
Oct 6
Waxing Crescent
Oct 11
First Quarter
Oct 18
Full
Oct 26
Last Quarter
Nov 3
New

Hourly Weather History & Observations

Time (CDT) Temp. Dew Point Humidity Pressure Visibility Wind Dir Wind Speed Gust Speed Precip Events Conditions
12:53 AM 57.0 °F 52.0 °F 83% 29.91 in 7.0 mi NW 10.4 mph - N/A Rain Light Rain
1:53 AM 57.0 °F 52.0 °F 83% 29.95 in 10.0 mi Variable 3.5 mph - N/A   Overcast
2:53 AM 57.9 °F 53.1 °F 84% 29.93 in 10.0 mi NW 4.6 mph - N/A   Overcast
3:53 AM 57.0 °F 53.1 °F 87% 29.94 in 10.0 mi Calm Calm - N/A   Overcast
4:53 AM 57.0 °F 53.1 °F 87% 29.95 in 10.0 mi West 3.5 mph - N/A   Mostly Cloudy
5:53 AM 57.0 °F 53.1 °F 87% 29.96 in 10.0 mi WSW 3.5 mph - N/A   Mostly Cloudy
6:53 AM 57.0 °F 53.1 °F 87% 29.96 in 10.0 mi West 5.8 mph - N/A   Overcast
7:53 AM 57.0 °F 53.1 °F 87% 29.97 in 10.0 mi WSW 5.8 mph - N/A   Mostly Cloudy
8:53 AM 60.1 °F 54.0 °F 80% 29.96 in 10.0 mi West 6.9 mph - N/A   Clear
9:53 AM 63.0 °F 51.1 °F 65% 29.96 in 10.0 mi West 11.5 mph - N/A   Clear
10:53 AM 66.9 °F 50.0 °F 54% 29.95 in 10.0 mi WNW 8.1 mph - N/A   Clear
11:53 AM 66.9 °F 45.0 °F 45% 29.93 in 10.0 mi West 9.2 mph - N/A   Clear
12:53 PM 69.1 °F 44.1 °F 40% 29.92 in 10.0 mi West 15.0 mph 20.7 mph N/A   Clear
1:53 PM 70.0 °F 42.1 °F 36% 29.91 in 10.0 mi West 16.1 mph 21.9 mph N/A   Clear
2:53 PM 71.1 °F 46.0 °F 41% 29.88 in 10.0 mi WNW 10.4 mph 18.4 mph N/A   Clear
3:53 PM 73.0 °F 46.0 °F 38% 29.88 in 10.0 mi West 11.5 mph - N/A   Clear
4:53 PM 72.0 °F 46.0 °F 40% 29.88 in 10.0 mi West 9.2 mph 19.6 mph N/A   Clear
5:53 PM 69.1 °F 45.0 °F 42% 29.90 in 10.0 mi NW 8.1 mph - N/A   Clear
6:53 PM 64.0 °F 45.0 °F 50% 29.93 in 10.0 mi NW 6.9 mph - N/A   Clear
7:53 PM 61.0 °F 45.0 °F 56% 29.95 in 10.0 mi NNW 6.9 mph - N/A   Clear
8:53 PM 57.9 °F 46.0 °F 65% 29.98 in 10.0 mi NW 4.6 mph - N/A   Clear
9:53 PM 57.0 °F 45.0 °F 64% 29.99 in 10.0 mi NW 5.8 mph - N/A   Clear
10:53 PM 55.9 °F 44.1 °F 64% 29.99 in 10.0 mi NNW 3.5 mph - N/A   Clear
11:53 PM 55.0 °F 45.0 °F 69% 29.98 in 10.0 mi WNW 3.5 mph - N/A   Clear